Location: ???????
(55.4362°N, 38.1183°E)
Time: 16:41:02
(UTC+00:00)

Cosmos 2219 Rocket - Pass Details

Date: 21 October 2021
Orbit: 826 x 848 km, 71.0° (Epoch: 04 December)

Event Time Altitude Azimuth Distance (km) Brightness Sun altitude
Exits shadow 00:41:00 10° 334° (NNW) 2,449 4.6 -29.6°
Maximum altitude 00:45:41 27° 30° (NNE) 1,586 4.1 -29.1°
Drops below altitude 10° 00:50:25 10° 87° (E) 2,466 5.4 -28.4°
Sets 00:53:16 0° 100° (E) 3,402 6.2 -28.1°
